Location: Unspecified
(52.4292°N, 19.3359°E)
Time: 23:35:22
(UTC+02:00)

SR - Pass Details

Date: 04 June 2024
Orbit: 580 x 858 km, 66.7° (Epoch: 12 June)

Event Time Altitude Azimuth Distance (km) Brightness Sun altitude
Rises 21:29:59 0° 320° (NW) 2,916 ? -4.3°
Reaches altitude 10° 21:32:46 10° 336° (NNW) 1,969 ? -4.5°
Maximum altitude 21:36:10 21° 27° (NNE) 1,347 ? -4.9°
Drops below altitude 10° 21:39:27 10° 78° (ENE) 1,908 ? -5.2°
Sets 21:42:06 0° 94° (E) 2,799 ? -5.5°
